owner,sensor,date,latitude,longitude,vertical_datum,direction_of_sea_water_velocity,sea_water_speed,upward_sea_water_velocity,qcFlag 
TABS,ioos:station:wmo:42043:1,2009-05-01T00:00:00Z,28.9818,-94.9186,2.0,226.4495904,83.55727676,-99999.0,'11111222,11111222,99999999' 
TABS,ioos:station:wmo:42043:1,2009-05-01T00:30:00Z,28.9818,-94.9186,2.0,225.4389423,84.85530744,-99999.0,'11111222,11111222,99999999' 
TABS,ioos:station:wmo:42043:1,2009-05-01T01:00:00Z,28.9818,-94.9186,2.0,226.5800228,82.30317916,-99999.0,'11111222,11111222,99999999' 
TABS,ioos:station:wmo:42043:1,2009-05-01T01:30:00Z,28.9818,-94.9186,2.0,228.7431181,83.17766166,-99999.0,'11111222,11111222,99999999' 
TABS,ioos:station:wmo:42043:1,2009-05-01T02:00:00Z,28.9818,-94.9186,2.0,229.2260072,83.28323361,-99999.0,'11111222,11111222,99999999' 
TABS,ioos:station:wmo:42043:1,2009-05-01T02:30:00Z,28.9818,-94.9186,2.0,229.7690357,76.45548574,-99999.0,'11111222,11111222,99999999' 
TABS,ioos:station:wmo:42043:1,2009-05-01T03:00:00Z,28.9818,-94.9186,2.0,231.7239717,70.35317548,-99999.0,'11111222,11111222,99999999' 
TABS,ioos:station:wmo:42043:1,2009-05-01T03:30:00Z,28.9818,-94.9186,2.0,239.0298029,64.5177681,-99999.0,'11111222,11111222,99999999' 
TABS,ioos:station:wmo:42043:1,2009-05-01T04:00:00Z,28.9818,-94.9186,2.0,246.9175052,57.4926404,-99999.0,'11111222,11111222,99999999' 
TABS,ioos:station:wmo:42043:1,2009-05-01T04:30:00Z,28.9818,-94.9186,2.0,254.144724,57.39343604,-99999.0,'11111222,11111222,99999999' 
TABS,ioos:station:wmo:42043:1,2009-05-01T05:00:00Z,28.9818,-94.9186,2.0,255.1004653,56.04421201,-99999.0,'11111222,11111222,99999999' 
TABS,ioos:station:wmo:42043:1,2009-05-01T05:30:00Z,28.9818,-94.9186,2.0,261.5123614,64.43565007,-99999.0,'11111222,11111222,99999999' 
TABS,ioos:station:wmo:42043:1,2009-05-01T06:00:00Z,28.9818,-94.9186,2.0,263.6076373,62.3375176,-99999.0,'11111222,11111222,99999999' 
TABS,ioos:station:wmo:42043:1,2009-05-01T06:30:00Z,28.9818,-94.9186,2.0,258.7065346,53.31221248,-99999.0,'11111222,11111222,99999999' 
TABS,ioos:station:wmo:42043:1,2009-05-01T07:00:00Z,28.9818,-94.9186,2.0,261.3431557,50.49521165,-99999.0,'11111222,11111222,99999999' 
TABS,ioos:station:wmo:42043:1,2009-05-01T07:30:00Z,28.9818,-94.9186,2.0,263.3203627,47.02919306,-99999.0,'11111222,11111222,99999999' 
TABS,ioos:station:wmo:42043:1,2009-05-01T08:00:00Z,28.9818,-94.9186,2.0,265.3284969,46.78539302,-99999.0,'11111222,11111222,99999999' 
TABS,ioos:station:wmo:42043:1,2009-05-01T08:30:00Z,28.9818,-94.9186,2.0,264.6291108,47.4382388,-99999.0,'11111222,11111222,99999999' 
TABS,ioos:station:wmo:42043:1,2009-05-01T09:00:00Z,28.9818,-94.9186,2.0,263.0721267,42.44989988,-99999.0,'11111222,11111222,99999999' 
TABS,ioos:station:wmo:42043:1,2009-05-01T09:30:00Z,28.9818,-94.9186,2.0,262.3042872,41.37259479,-99999.0,'11111222,11111222,99999999' 
TABS,ioos:station:wmo:42043:1,2009-05-01T10:00:00Z,28.9818,-94.9186,2.0,261.4585709,35.88800635,-99999.0,'11111222,11111222,99999999' 
TABS,ioos:station:wmo:42043:1,2009-05-01T10:30:00Z,28.9818,-94.9186,2.0,261.9698464,34.72041042,-99999.0,'11111222,11111222,99999999' 
TABS,ioos:station:wmo:42043:1,2009-05-01T11:00:00Z,28.9818,-94.9186,2.0,267.0129491,29.940668,-99999.0,'11111222,11111222,99999999' 
TABS,ioos:station:wmo:42043:1,2009-05-01T11:30:00Z,28.9818,-94.9186,2.0,272.2704112,27.77179324,-99999.0,'11111222,11111222,99999999' 
TABS,ioos:station:wmo:42043:1,2009-05-01T12:00:00Z,28.9818,-94.9186,2.0,266.0736806,24.53757934,-99999.0,'11111222,11111222,99999999' 
TABS,ioos:station:wmo:42043:1,2009-05-01T12:30:00Z,28.9818,-94.9186,2.0,264.9293234,21.72500863,-99999.0,'11111222,11111222,99999999' 
TABS,ioos:station:wmo:42043:1,2009-05-01T13:00:00Z,28.9818,-94.9186,2.0,266.9757478,21.80035321,-99999.0,'11111222,11111222,99999999' 
TABS,ioos:station:wmo:42043:1,2009-05-01T13:30:00Z,28.9818,-94.9186,2.0,245.088657,20.91595085,-99999.0,'11111222,11111222,99999999' 
TABS,ioos:station:wmo:42043:1,2009-05-01T14:00:00Z,28.9818,-94.9186,2.0,243.9994403,19.96011273,-99999.0,'11111222,11111222,99999999' 
TABS,ioos:station:wmo:42043:1,2009-05-01T14:30:00Z,28.9818,-94.9186,2.0,241.219099,19.08792812,-99999.0,'11111222,11111222,99999999' 
TABS,ioos:station:wmo:42043:1,2009-05-01T15:00:00Z,28.9818,-94.9186,2.0,238.3410308,19.09091145,-99999.0,'11111222,11111222,99999999' 
TABS,ioos:station:wmo:42043:1,2009-05-01T15:30:00Z,28.9818,-94.9186,2.0,224.6887808,18.24362354,-99999.0,'11111222,11111222,99999999' 
TABS,ioos:station:wmo:42043:1,2009-05-01T16:00:00Z,28.9818,-94.9186,2.0,222.5070666,22.9248795,-99999.0,'11111222,11111222,99999999' 
TABS,ioos:station:wmo:42043:1,2009-05-01T16:30:00Z,28.9818,-94.9186,2.0,217.0079855,26.49807729,-99999.0,'11111222,11111222,99999999' 
TABS,ioos:station:wmo:42043:1,2009-05-01T17:00:00Z,28.9818,-94.9186,2.0,222.5422128,28.52971258,-99999.0,'11111222,11111222,99999999' 
TABS,ioos:station:wmo:42043:1,2009-05-01T17:30:00Z,28.9818,-94.9186,2.0,221.0974929,26.91123371,-99999.0,'11111222,11111222,99999999' 
TABS,ioos:station:wmo:42043:1,2009-05-01T18:00:00Z,28.9818,-94.9186,2.0,230.3967705,29.31934856,-99999.0,'11111222,11111222,99999999' 
TABS,ioos:station:wmo:42043:1,2009-05-01T18:30:00Z,28.9818,-94.9186,2.0,262.0486053,57.90667146,-99999.0,'11111222,11111222,99999999' 
TABS,ioos:station:wmo:42043:1,2009-05-01T19:00:00Z,28.9818,-94.9186,2.0,262.5013005,61.30422824,-99999.0,'11111222,11111222,99999999' 
TABS,ioos:station:wmo:42043:1,2009-05-01T19:30:00Z,28.9818,-94.9186,2.0,265.5982338,66.32559838,-99999.0,'11111222,11111222,99999999' 
TABS,ioos:station:wmo:42043:1,2009-05-01T20:00:00Z,28.9818,-94.9186,2.0,264.0450439,63.33170612,-99999.0,'11111222,11111222,99999999' 
TABS,ioos:station:wmo:42043:1,2009-05-01T20:30:00Z,28.9818,-94.9186,2.0,260.911127,62.73763304,-99999.0,'11111222,11111222,99999999' 
TABS,ioos:station:wmo:42043:1,2009-05-01T21:00:00Z,28.9818,-94.9186,2.0,260.4866658,61.41455365,-99999.0,'11111222,11111222,99999999' 
TABS,ioos:station:wmo:42043:1,2009-05-01T21:30:00Z,28.9818,-94.9186,2.0,257.6476921,57.26557517,-99999.0,'11111222,11111222,99999999' 
TABS,ioos:station:wmo:42043:1,2009-05-01T22:00:00Z,28.9818,-94.9186,2.0,265.3804538,58.61036427,-99999.0,'11111222,11111222,99999999' 
TABS,ioos:station:wmo:42043:1,2009-05-01T22:30:00Z,28.9818,-94.9186,2.0,265.1837311,54.67301437,-99999.0,'11111222,11111222,99999999' 
TABS,ioos:station:wmo:42043:1,2009-05-01T23:00:00Z,28.9818,-94.9186,2.0,266.6063412,57.78130147,-99999.0,'11111222,11111222,99999999' 
TABS,ioos:station:wmo:42043:1,2009-05-01T23:30:00Z,28.9818,-94.9186,2.0,267.6797698,54.10434086,-99999.0,'11111222,11111222,99999999' 
TABS,ioos:station:wmo:42043:1,2009-05-02T00:00:00Z,28.9818,-94.9186,2.0,269.2289268,54.27490949,-99999.0,'11111222,11111222,99999999' 
TABS,ioos:station:wmo:42043:1,2009-05-02T00:30:00Z,28.9818,-94.9186,2.0,267.8009154,56.04125712,-99999.0,'11111222,11111222,99999999' 
TABS,ioos:station:wmo:42043:1,2009-05-02T01:00:00Z,28.9818,-94.9186,2.0,269.0450749,57.02791334,-99999.0,'11111222,11111222,99999999' 
TABS,ioos:station:wmo:42043:1,2009-05-02T01:30:00Z,28.9818,-94.9186,2.0,273.0611757,57.12148545,-99999.0,'11111222,11111222,99999999' 
TABS,ioos:station:wmo:42043:1,2009-05-02T02:00:00Z,28.9818,-94.9186,2.0,276.9400907,64.8047668,-99999.0,'11111222,11111222,99999999' 
TABS,ioos:station:wmo:42043:1,2009-05-02T02:30:00Z,28.9818,-94.9186,2.0,271.9989892,57.63505964,-99999.0,'11111222,11111222,99999999' 
TABS,ioos:station:wmo:42043:1,2009-05-02T03:00:00Z,28.9818,-94.9186,2.0,273.6963964,56.15679834,-99999.0,'11111222,11111222,99999999' 
TABS,ioos:station:wmo:42043:1,2009-05-02T03:30:00Z,28.9818,-94.9186,2.0,273.6578851,53.29855627,-99999.0,'11111222,11111222,99999999' 
TABS,ioos:station:wmo:42043:1,2009-05-02T04:00:00Z,28.9818,-94.9186,2.0,281.2746575,53.5534434,-99999.0,'11111222,11111222,99999999' 
TABS,ioos:station:wmo:42043:1,2009-05-02T04:30:00Z,28.9818,-94.9186,2.0,281.4294072,50.01168363,-99999.0,'11111222,11111222,99999999' 
TABS,ioos:station:wmo:42043:1,2009-05-02T05:00:00Z,28.9818,-94.9186,2.0,280.2713198,46.83042707,-99999.0,'11111222,11111222,99999999' 
TABS,ioos:station:wmo:42043:1,2009-05-02T05:30:00Z,28.9818,-94.9186,2.0,282.1351638,44.00321466,-99999.0,'11111222,11111222,99999999' 
TABS,ioos:station:wmo:42043:1,2009-05-02T06:00:00Z,28.9818,-94.9186,2.0,275.033238,40.12469688,-99999.0,'11111222,11111222,99999999' 
TABS,ioos:station:wmo:42043:1,2009-05-02T06:30:00Z,28.9818,-94.9186,2.0,268.8273676,34.2171609,-99999.0,'11111222,11111222,99999999' 
TABS,ioos:station:wmo:42043:1,2009-05-02T07:00:00Z,28.9818,-94.9186,2.0,256.6967596,33.15976176,-99999.0,'11111222,11111222,99999999' 
TABS,ioos:station:wmo:42043:1,2009-05-02T07:30:00Z,28.9818,-94.9186,2.0,247.1355595,29.23718865,-99999.0,'11111222,11111222,99999999' 
TABS,ioos:station:wmo:42043:1,2009-05-02T08:00:00Z,28.9818,-94.9186,2.0,242.3409072,22.72706316,-99999.0,'11111222,11111222,99999999' 
TABS,ioos:station:wmo:42043:1,2009-05-02T08:30:00Z,28.9818,-94.9186,2.0,240.4044084,20.896203,-99999.0,'11111222,11111222,99999999' 
TABS,ioos:station:wmo:42043:1,2009-05-02T09:00:00Z,28.9818,-94.9186,2.0,222.6385424,18.36501293,-99999.0,'11111222,11111222,99999999' 
TABS,ioos:station:wmo:42043:1,2009-05-02T09:30:00Z,28.9818,-94.9186,2.0,220.0425698,22.25812211,-99999.0,'11111222,11111222,99999999' 
TABS,ioos:station:wmo:42043:1,2009-05-02T10:00:00Z,28.9818,-94.9186,2.0,213.261731,17.4485816,-99999.0,'11111222,11111222,99999999' 
TABS,ioos:station:wmo:42043:1,2009-05-02T10:30:00Z,28.9818,-94.9186,2.0,215.5563469,14.04969039,-99999.0,'11111222,11111222,99999999' 
TABS,ioos:station:wmo:42043:1,2009-05-02T11:00:00Z,28.9818,-94.9186,2.0,192.651244,10.63829404,-99999.0,'11111222,11111222,99999999' 
TABS,ioos:station:wmo:42043:1,2009-05-02T11:30:00Z,28.9818,-94.9186,2.0,182.7197339,12.85448171,-99999.0,'11111222,11111222,99999999' 
TABS,ioos:station:wmo:42043:1,2009-05-02T12:00:00Z,28.9818,-94.9186,2.0,166.4128298,13.91954741,-99999.0,'11111222,11111222,99999999' 
TABS,ioos:station:wmo:42043:1,2009-05-02T12:30:00Z,28.9818,-94.9186,2.0,166.1758784,16.36399096,-99999.0,'11111222,11111222,99999999' 
TABS,ioos:station:wmo:42043:1,2009-05-02T13:00:00Z,28.9818,-94.9186,2.0,174.8053728,18.55620651,-99999.0,'11111222,11111222,99999999' 
TABS,ioos:station:wmo:42043:1,2009-05-02T13:30:00Z,28.9818,-94.9186,2.0,168.1393246,15.71551145,-99999.0,'11111222,11111222,99999999' 
TABS,ioos:station:wmo:42043:1,2009-05-02T14:00:00Z,28.9818,-94.9186,2.0,175.9681492,16.64118085,-99999.0,'11111222,11111222,99999999' 
TABS,ioos:station:wmo:42043:1,2009-05-02T14:30:00Z,28.9818,-94.9186,2.0,178.3395111,15.87666527,-99999.0,'11111222,11111222,99999999' 
TABS,ioos:station:wmo:42043:1,2009-05-02T15:00:00Z,28.9818,-94.9186,2.0,181.6223548,15.18608903,-99999.0,'11111222,11111222,99999999' 
TABS,ioos:station:wmo:42043:1,2009-05-02T15:30:00Z,28.9818,-94.9186,2.0,192.1514048,18.28980317,-99999.0,'11111222,11111222,99999999' 
TABS,ioos:station:wmo:42043:1,2009-05-02T16:00:00Z,28.9818,-94.9186,2.0,195.0988772,22.22736377,-99999.0,'11111222,11111222,99999999' 
TABS,ioos:station:wmo:42043:1,2009-05-02T16:30:00Z,28.9818,-94.9186,2.0,194.9975379,25.58140927,-99999.0,'11111222,11111222,99999999' 
TABS,ioos:station:wmo:42043:1,2009-05-02T17:00:00Z,28.9818,-94.9186,2.0,214.4538281,27.66258484,-99999.0,'11111222,11111222,99999999' 
TABS,ioos:station:wmo:42043:1,2009-05-02T17:30:00Z,28.9818,-94.9186,2.0,234.6376416,34.12581721,-99999.0,'11111222,11111222,99999999' 
TABS,ioos:station:wmo:42043:1,2009-05-02T18:00:00Z,28.9818,-94.9186,2.0,228.7005317,38.5611644,-99999.0,'11111222,11111222,99999999' 
TABS,ioos:station:wmo:42043:1,2009-05-02T18:30:00Z,28.9818,-94.9186,2.0,225.2393265,38.88414201,-99999.0,'11111222,11111222,99999999' 
TABS,ioos:station:wmo:42043:1,2009-05-02T19:00:00Z,28.9818,-94.9186,2.0,227.4134724,33.91464875,-99999.0,'11111222,11111222,99999999' 
TABS,ioos:station:wmo:42043:1,2009-05-02T19:30:00Z,28.9818,-94.9186,2.0,231.2903404,36.138622,-99999.0,'11111222,11111222,99999999' 
TABS,ioos:station:wmo:42043:1,2009-05-02T20:00:00Z,28.9818,-94.9186,2.0,230.4196262,36.75711224,-99999.0,'11111222,11111222,99999999' 
TABS,ioos:station:wmo:42043:1,2009-05-02T20:30:00Z,28.9818,-94.9186,2.0,230.690685,32.94384616,-99999.0,'11111222,11111222,99999999' 
TABS,ioos:station:wmo:42043:1,2009-05-02T21:00:00Z,28.9818,-94.9186,2.0,224.2474005,30.69815141,-99999.0,'11111222,11111222,99999999' 
TABS,ioos:station:wmo:42043:1,2009-05-02T21:30:00Z,28.9818,-94.9186,2.0,214.1190457,31.46625176,-99999.0,'11111222,11111222,99999999' 
TABS,ioos:station:wmo:42043:1,2009-05-02T22:00:00Z,28.9818,-94.9186,2.0,214.7556208,31.60951281,-99999.0,'11111222,11111222,99999999' 
TABS,ioos:station:wmo:42043:1,2009-05-02T22:30:00Z,28.9818,-94.9186,2.0,217.666951,24.43236583,-99999.0,'11111222,11111222,99999999' 
TABS,ioos:station:wmo:42043:1,2009-05-02T23:00:00Z,28.9818,-94.9186,2.0,209.8908266,28.67444333,-99999.0,'11111222,11111222,99999999' 
TABS,ioos:station:wmo:42043:1,2009-05-02T23:30:00Z,28.9818,-94.9186,2.0,208.7060732,30.04242667,-99999.0,'11111222,11111222,99999999' 
TABS,ioos:station:wmo:42043:1,2009-05-03T00:00:00Z,28.9818,-94.9186,2.0,203.234903,28.79550659,-99999.0,'11111222,11111222,99999999' 
TABS,ioos:station:wmo:42043:1,2009-05-03T00:30:00Z,28.9818,-94.9186,2.0,204.5103479,33.43281771,-99999.0,'11111222,11111222,99999999' 
TABS,ioos:station:wmo:42043:1,2009-05-03T01:00:00Z,28.9818,-94.9186,2.0,207.846716,32.58319352,-99999.0,'11111222,11111222,99999999' 
TABS,ioos:station:wmo:42043:1,2009-05-03T01:30:00Z,28.9818,-94.9186,2.0,204.3447518,31.63279943,-99999.0,'11111222,11111222,99999999' 
TABS,ioos:station:wmo:42043:1,2009-05-03T02:00:00Z,28.9818,-94.9186,2.0,210.5393902,31.74354265,-99999.0,'11111222,11111222,99999999' 
TABS,ioos:station:wmo:42043:1,2009-05-03T02:30:00Z,28.9818,-94.9186,2.0,211.7344089,32.75748006,-99999.0,'11111222,11111222,99999999' 
TABS,ioos:station:wmo:42043:1,2009-05-03T03:00:00Z,28.9818,-94.9186,2.0,210.5072103,35.3195385,-99999.0,'11111222,11111222,99999999' 
TABS,ioos:station:wmo:42043:1,2009-05-03T03:30:00Z,28.9818,-94.9186,2.0,212.2768497,34.19379622,-99999.0,'11111222,11111222,99999999' 
TABS,ioos:station:wmo:42043:1,2009-05-03T04:00:00Z,28.9818,-94.9186,2.0,206.8457461,34.6549982,-99999.0,'11111222,11111222,99999999' 
TABS,ioos:station:wmo:42043:1,2009-05-03T04:30:00Z,28.9818,-94.9186,2.0,210.790212,36.29612652,-99999.0,'11111222,11111222,99999999' 
TABS,ioos:station:wmo:42043:1,2009-05-03T05:00:00Z,28.9818,-94.9186,2.0,207.7279821,34.36650259,-99999.0,'11111222,11111222,99999999' 
TABS,ioos:station:wmo:42043:1,2009-05-03T05:30:00Z,28.9818,-94.9186,2.0,212.4444169,29.86101807,-99999.0,'11111222,11111222,99999999' 
TABS,ioos:station:wmo:42043:1,2009-05-03T06:00:00Z,28.9818,-94.9186,2.0,209.2410179,29.21254867,-99999.0,'11111222,11111222,99999999' 
TABS,ioos:station:wmo:42043:1,2009-05-03T06:30:00Z,28.9818,-94.9186,2.0,209.5095461,28.1176706,-99999.0,'11111222,11111222,99999999' 
TABS,ioos:station:wmo:42043:1,2009-05-03T07:00:00Z,28.9818,-94.9186,2.0,206.6422182,26.4705969,-99999.0,'11111222,11111222,99999999' 
TABS,ioos:station:wmo:42043:1,2009-05-03T07:30:00Z,28.9818,-94.9186,2.0,197.8360533,25.726533,-99999.0,'11111222,11111222,99999999' 
TABS,ioos:station:wmo:42043:1,2009-05-03T08:00:00Z,28.9818,-94.9186,2.0,193.4559381,30.42522802,-99999.0,'11111222,11111222,99999999' 
TABS,ioos:station:wmo:42043:1,2009-05-03T08:30:00Z,28.9818,-94.9186,2.0,200.4061961,29.13866332,-99999.0,'11111222,11111222,99999999' 
TABS,ioos:station:wmo:42043:1,2009-05-03T09:00:00Z,28.9818,-94.9186,2.0,193.6490965,29.45177244,-99999.0,'11111222,11111222,99999999' 
TABS,ioos:station:wmo:42043:1,2009-05-03T09:30:00Z,28.9818,-94.9186,2.0,195.2113679,30.03222935,-99999.0,'11111222,11111222,99999999' 
TABS,ioos:station:wmo:42043:1,2009-05-03T10:00:00Z,28.9818,-94.9186,2.0,188.4392625,25.14225527,-99999.0,'11111222,11111222,99999999' 
TABS,ioos:station:wmo:42043:1,2009-05-03T10:30:00Z,28.9818,-94.9186,2.0,170.1559122,14.56442927,-99999.0,'11111222,11111222,99999999' 
TABS,ioos:station:wmo:42043:1,2009-05-03T11:00:00Z,28.9818,-94.9186,2.0,190.567779,9.541849925,-99999.0,'11133222,11111222,99999999' 
TABS,ioos:station:wmo:42043:1,2009-05-03T11:30:00Z,28.9818,-94.9186,2.0,215.9467327,9.437224168,-99999.0,'11133222,11111222,99999999' 
TABS,ioos:station:wmo:42043:1,2009-05-03T12:00:00Z,28.9818,-94.9186,2.0,212.9691163,3.969193873,-99999.0,'11133222,11111222,99999999' 
TABS,ioos:station:wmo:42043:1,2009-05-03T12:30:00Z,28.9818,-94.9186,2.0,18.84251209,4.892167209,-99999.0,'11133222,11111222,99999999' 
TABS,ioos:station:wmo:42043:1,2009-05-03T13:00:00Z,28.9818,-94.9186,2.0,43.65023673,9.605175688,-99999.0,'11133222,11111222,99999999' 
TABS,ioos:station:wmo:42043:1,2009-05-03T13:30:00Z,28.9818,-94.9186,2.0,59.11160577,9.135737518,-99999.0,'11133222,11111222,99999999' 
TABS,ioos:station:wmo:42043:1,2009-05-03T14:00:00Z,28.9818,-94.9186,2.0,91.26677343,8.141989929,-99999.0,'11133222,11111222,99999999' 
TABS,ioos:station:wmo:42043:1,2009-05-03T14:30:00Z,28.9818,-94.9186,2.0,125.0376131,7.19367778,-99999.0,'11133222,11111222,99999999' 
TABS,ioos:station:wmo:42043:1,2009-05-03T15:00:00Z,28.9818,-94.9186,2.0,166.8130152,9.161577375,-99999.0,'11133222,11111222,99999999' 
TABS,ioos:station:wmo:42043:1,2009-05-03T15:30:00Z,28.9818,-94.9186,2.0,180.5284072,14.0905997,-99999.0,'11111222,11111222,99999999' 
TABS,ioos:station:wmo:42043:1,2009-05-03T16:00:00Z,28.9818,-94.9186,2.0,204.3237752,23.3310887,-99999.0,'11111222,11111222,99999999' 
TABS,ioos:station:wmo:42043:1,2009-05-03T16:30:00Z,28.9818,-94.9186,2.0,208.6362324,28.08547845,-99999.0,'11111222,11111222,99999999' 
TABS,ioos:station:wmo:42043:1,2009-05-03T17:00:00Z,28.9818,-94.9186,2.0,210.6565356,32.65379917,-99999.0,'11111222,11111222,99999999' 
TABS,ioos:station:wmo:42043:1,2009-05-03T17:30:00Z,28.9818,-94.9186,2.0,220.0651533,38.38969263,-99999.0,'11111222,11111222,99999999' 
TABS,ioos:station:wmo:42043:1,2009-05-03T18:00:00Z,28.9818,-94.9186,2.0,223.1180151,43.71570084,-99999.0,'11111222,11111222,99999999' 
TABS,ioos:station:wmo:42043:1,2009-05-03T18:30:00Z,28.9818,-94.9186,2.0,228.3413745,48.03766231,-99999.0,'11111222,11111222,99999999' 
TABS,ioos:station:wmo:42043:1,2009-05-03T19:00:00Z,28.9818,-94.9186,2.0,231.0327853,47.49780837,-99999.0,'11111222,11111222,99999999' 
TABS,ioos:station:wmo:42043:1,2009-05-03T19:30:00Z,28.9818,-94.9186,2.0,230.2106318,44.37758443,-99999.0,'11111222,11111222,99999999' 
TABS,ioos:station:wmo:42043:1,2009-05-03T20:00:00Z,28.9818,-94.9186,2.0,232.5378666,47.43253103,-99999.0,'11111222,11111222,99999999' 
TABS,ioos:station:wmo:42043:1,2009-05-03T20:30:00Z,28.9818,-94.9186,2.0,232.895323,54.2544542,-99999.0,'11111222,11111222,99999999' 
TABS,ioos:station:wmo:42043:1,2009-05-03T21:00:00Z,28.9818,-94.9186,2.0,237.9963366,58.79596245,-99999.0,'11111222,11111222,99999999' 
TABS,ioos:station:wmo:42043:1,2009-05-03T21:30:00Z,28.9818,-94.9186,2.0,235.3529199,63.62188696,-99999.0,'11111222,11111222,99999999' 
TABS,ioos:station:wmo:42043:1,2009-05-03T22:00:00Z,28.9818,-94.9186,2.0,226.373164,57.52552216,-99999.0,'11111222,11111222,99999999' 
TABS,ioos:station:wmo:42043:1,2009-05-03T22:30:00Z,28.9818,-94.9186,2.0,221.410128,43.93388328,-99999.0,'11111222,11111222,99999999' 
TABS,ioos:station:wmo:42043:1,2009-05-03T23:00:00Z,28.9818,-94.9186,2.0,223.712562,44.70042729,-99999.0,'11111222,11111222,99999999' 
TABS,ioos:station:wmo:42043:1,2009-05-03T23:30:00Z,28.9818,-94.9186,2.0,231.0596235,46.61842554,-99999.0,'11111222,11111222,99999999' 
TABS,ioos:station:wmo:42043:1,2009-05-04T00:00:00Z,28.9818,-94.9186,2.0,239.171578,57.93581448,-99999.0,'11111222,11111222,99999999' 
TABS,ioos:station:wmo:42043:1,2009-05-04T00:30:00Z,28.9818,-94.9186,2.0,245.9583038,61.24269263,-99999.0,'11111222,11111222,99999999' 
TABS,ioos:station:wmo:42043:1,2009-05-04T01:00:00Z,28.9818,-94.9186,2.0,253.0050727,65.41657282,-99999.0,'11111222,11111222,99999999' 
TABS,ioos:station:wmo:42043:1,2009-05-04T01:30:00Z,28.9818,-94.9186,2.0,256.1161747,60.93001641,-99999.0,'11111222,11111222,99999999' 
TABS,ioos:station:wmo:42043:1,2009-05-04T02:00:00Z,28.9818,-94.9186,2.0,254.6528009,65.21548666,-99999.0,'11111222,11111222,99999999' 
TABS,ioos:station:wmo:42043:1,2009-05-04T02:30:00Z,28.9818,-94.9186,2.0,258.5533633,64.29881803,-99999.0,'11111222,11111222,99999999' 
TABS,ioos:station:wmo:42043:1,2009-05-04T03:00:00Z,28.9818,-94.9186,2.0,263.2312003,65.16415042,-99999.0,'11111222,11111222,99999999' 
TABS,ioos:station:wmo:42043:1,2009-05-04T03:30:00Z,28.9818,-94.9186,2.0,266.2238973,64.54008444,-99999.0,'11111222,11111222,99999999' 
TABS,ioos:station:wmo:42043:1,2009-05-04T04:00:00Z,28.9818,-94.9186,2.0,270.1128754,61.14011776,-99999.0,'11111222,11111222,99999999' 
TABS,ioos:station:wmo:42043:1,2009-05-04T04:30:00Z,28.9818,-94.9186,2.0,269.4717447,59.70253345,-99999.0,'11111222,11111222,99999999' 
TABS,ioos:station:wmo:42043:1,2009-05-04T05:00:00Z,28.9818,-94.9186,2.0,269.7759676,56.3704293,-99999.0,'11111222,11111222,99999999' 
TABS,ioos:station:wmo:42043:1,2009-05-04T05:30:00Z,28.9818,-94.9186,2.0,271.9466115,55.65210239,-99999.0,'11111222,11111222,99999999' 
TABS,ioos:station:wmo:42043:1,2009-05-04T06:00:00Z,28.9818,-94.9186,2.0,270.7559014,55.36481283,-99999.0,'11111222,11111222,99999999' 
TABS,ioos:station:wmo:42043:1,2009-05-04T06:30:00Z,28.9818,-94.9186,2.0,268.1701451,53.87746189,-99999.0,'11111222,11111222,99999999' 
TABS,ioos:station:wmo:42043:1,2009-05-04T07:00:00Z,28.9818,-94.9186,2.0,271.2360851,50.08164634,-99999.0,'11111222,11111222,99999999' 
TABS,ioos:station:wmo:42043:1,2009-05-04T07:30:00Z,28.9818,-94.9186,2.0,271.4335085,43.18350727,-99999.0,'11111222,11111222,99999999' 
TABS,ioos:station:wmo:42043:1,2009-05-04T08:00:00Z,28.9818,-94.9186,2.0,274.15742,39.45379703,-99999.0,'11111222,11111222,99999999' 
TABS,ioos:station:wmo:42043:1,2009-05-04T08:30:00Z,28.9818,-94.9186,2.0,268.8038024,41.68907891,-99999.0,'11111222,11111222,99999999' 
TABS,ioos:station:wmo:42043:1,2009-05-04T09:00:00Z,28.9818,-94.9186,2.0,265.1663807,40.35348932,-99999.0,'11111222,11111222,99999999' 
TABS,ioos:station:wmo:42043:1,2009-05-04T09:30:00Z,28.9818,-94.9186,2.0,261.8801514,38.02113228,-99999.0,'11111222,11111222,99999999' 
TABS,ioos:station:wmo:42043:1,2009-05-04T10:00:00Z,28.9818,-94.9186,2.0,255.6816231,39.95095118,-99999.0,'11111222,11111222,99999999' 
TABS,ioos:station:wmo:42043:1,2009-05-04T10:30:00Z,28.9818,-94.9186,2.0,244.981866,39.41836247,-99999.0,'11111222,11111222,99999999' 
TABS,ioos:station:wmo:42043:1,2009-05-04T11:00:00Z,28.9818,-94.9186,2.0,239.0175266,42.79575914,-99999.0,'11111222,11111222,99999999' 
TABS,ioos:station:wmo:42043:1,2009-05-04T11:30:00Z,28.9818,-94.9186,2.0,234.6770131,44.29414973,-99999.0,'11111222,11111222,99999999' 
TABS,ioos:station:wmo:42043:1,2009-05-04T12:00:00Z,28.9818,-94.9186,2.0,231.4288872,48.24525676,-99999.0,'11111222,11111222,99999999' 
TABS,ioos:station:wmo:42043:1,2009-05-04T12:30:00Z,28.9818,-94.9186,2.0,226.4446023,51.31691437,-99999.0,'11111222,11111222,99999999' 
TABS,ioos:station:wmo:42043:1,2009-05-04T13:00:00Z,28.9818,-94.9186,2.0,223.4382976,52.93952777,-99999.0,'11111222,11111222,99999999' 
TABS,ioos:station:wmo:42043:1,2009-05-04T13:30:00Z,28.9818,-94.9186,2.0,222.2655225,53.95710333,-99999.0,'11111222,11111222,99999999' 
TABS,ioos:station:wmo:42043:1,2009-05-04T14:00:00Z,28.9818,-94.9186,2.0,226.0283839,53.56490082,-99999.0,'11111222,11111222,99999999' 
TABS,ioos:station:wmo:42043:1,2009-05-04T14:30:00Z,28.9818,-94.9186,2.0,225.6583759,62.123436,-99999.0,'11111222,11111222,99999999' 
TABS,ioos:station:wmo:42043:1,2009-05-04T15:00:00Z,28.9818,-94.9186,2.0,230.3040847,62.03142188,-99999.0,'11111222,11111222,99999999' 
TABS,ioos:station:wmo:42043:1,2009-05-04T15:30:00Z,28.9818,-94.9186,2.0,232.1985667,63.254354,-99999.0,'11111222,11111222,99999999' 
TABS,ioos:station:wmo:42043:1,2009-05-04T16:00:00Z,28.9818,-94.9186,2.0,234.4379745,66.57735351,-99999.0,'11111222,11111222,99999999' 